Temp
71 72 74 75 75 74 74 74 74 75 76 76 76 76 76 76 76 76 76 76 77 78 80 78 78 78 78 78 77 76 76 75 75 76 76 77 78 77 76 75 75 76 76
74 72 73 74 75 75 75 74 75 75 76 76 76 76 76 76 76 76 76 76 77 78 79 78 78 78 78 77 75 75 75 74 74 75 76 78 78 77 76 75 74 75 75
73 72 73 73 74 75 75 75 75 75 76 76 76 76 76 76 76 76 75 76 77 78 78 78 78 78 77 75 74 74 74 74 74 74 75 73 75 77 76 75 74 75 75
73 72 72 73 74 74 74 74 75 76 76 76 76 76 76 76 76 75 75 75 76 77 78 78 78 77 76 74 74 74 74 73 73 73 72 72 75 76 76 75 75 75 75
72 72 73 73 73 74 74 74 74 75 75 75 75 76 76 76 76 75 75 75 76 77 78 78 78 76 74 73 73 73 73 73 72 72 70 71 72 76 76 76 75 75 74
71 72 70 71 72 74 74 74 74 74 73 74 74 75 76 76 76 75 74 75 76 77 77 78 76 74 73 72 72 72 72 72 71 70 69 72 71 76 76 75 74 74 73
70 71 71 70 72 73 74 74 74 73 73 73 74 74 75 75 75 74 74 74 75 76 76 76 74 73 72 72 72 71 71 70 70 69 69 70 71 75 76 75 74 73 73
71 71 70 71 71 72 73 73 72 72 72 72 73 74 74 74 74 73 73 73 74 74 74 74 73 72 72 71 71 70 69 69 70 68 68 69 71 75 76 75 73 73 73
70 70 69 69 71 70 70 70 70 70 71 72 72 72 73 72 72 73 73 73 73 73 73 73 72 71 72 71 70 69 68 69 67 67 69 68 73 75 76 74 74 73 73
68 68 68 68 69 69 69 69 68 69 70 70 71 70 70 70 71 71 71 72 73 72 72 72 71 71 71 70 69 68 68 68 66 66 67 68 72 76 76 75 74 73 72
62 64 68 67 67 68 69 70 70 70 69 69 70 70 68 70 69 70 70 70 71 71 71 71 70 70 69 69 69 68 68 67 66 66 66 69 72 76 76 74 73 72 72
57 59 59 61 63 68 71 68 68 71 71 71 71 70 70 71 71 70 69 69 69 69 69 69 69 69 68 67 67 68 67 67 66 66 67 68 71 76 76 74 73 72 71
56 56 55 56 58 58 61 64 68 69 70 70 70 70 71 71 71 71 69 68 68 68 69 68 67 67 67 66 66 66 66 66 66 66 67 67 71 75 76 74 73 72 71
53 54 54 52 54 54 56 57 59 60 64 67 69 70 69 68 68 68 70 70 70 71 70 70 68 67 67 66 66 65 65 65 65 65 66 66 69 73 76 75 74 73 72
49 50 51 51 50 52 53 53 54 55 58 61 64 64 66 68 68 68 69 70 70 71 70 69 69 68 68 68 66 65 65 65 65 65 65 65 66 71 74 75 75 74 73
47 47 49 50 48 49 49 49 50 52 54 56 59 61 63 63 64 68 68 69 68 70 71 70 69 68 67 67 67 66 66 65 65 65 65 66 64 67 71 74 74 74 74
45 46 46 48 47 46 46 47 48 49 51 51 53 56 58 61 61 61 63 67 69 69 69 68 68 66 66 67 66 66 66 66 66 65 66 66 66 64 66 69 72 73 73
43 43 44 46 44 43 44 46 47 47 48 49 50 52 55 56 58 59 60 64 66 67 68 68 68 66 66 65 66 65 66 65 65 66 65 66 65 67 65 66 68 70 71
41 41 41 42 41 41 43 44 44 45 45 45 47 48 51 53 57 56 58 60 65 63 60 65 67 67 65 65 65 66 65 65 65 67 65 65 65 66 67 66 65 66 68
39 40 40 41 40 41 42 42 43 43 44 45 46 46 49 51 53 53 55 56 58 59 60 61 63 66 65 66 66 65 64 65 64 65 66 66 66 65 66 66 66 66 64
38 37 38 38 39 39 38 37 39 40 40 43 44 46 47 47 50 50 50 51 53 55 58 62 62 62 63 65 64 63 63 64 63 65 66 65 65 66 65 66 66 67 66
35 35 37 37 38 38 39 38 38 38 39 41 43 43 43 45 46 48 47 49 51 53 55 60 61 61 61 64 62 62 59 60 62 64 64 65 66 66 65 65 65 66 67
33 33 36 37 38 38 39 38 37 38 38 38 38 39 41 43 44 45 46 48 48 50 52 55 60 62 60 62 64 62 57 57 60 62 64 64 64 64 66 65 65 65 66
32 34 37 38 37 38 39 37 36 35 34 37 37 39 39 41 42 44 45 46 46 47 49 52 57 62 62 59 62 64 64 60 57 56 61 64 64 64 65 65 65 65 65
35 37 35 39 37 39 39 39 37 36 37 39 39 39 41 42 42 42 44 44 45 47 48 50 54 57 61 61 61 61 60 60 61 58 56 59 63 66 66 66 66 65 65
37 35 33 37 36 38 36 37 37 36 37 37 38 38 40 42 43 44 45 45 44 44 46 50 54 57 59 61 62 61 60 59 60 59 59 59 60 62 65 66 65 65 65
MSLP
1009.82 1009.65 1009.79 1010.00 1010.00 1010.40 1010.84 1011.25 1011.33 1011.11 1010.67 1010.47 1010.54 1010.76 1011.01 1011.29 1011.65 1012.02 1012.38 1012.77 1012.96 1013.18 1013.44 1013.74 1013.92 1013.99 1013.99 1014.01 1014.10 1014.37 1014.62 1014.73 1014.95 1015.03 1015.15 1015.21 1015.37 1015.67 1015.82 1016.01 1016.12 1016.36 1016.52
1009.61 1009.79 1010.04 1010.14 1010.25 1010.33 1010.37 1010.75 1011.43 1011.67 1011.39 1011.01 1010.99 1011.08 1011.27 1011.61 1011.90 1012.20 1012.57 1012.89 1013.07 1013.28 1013.59 1013.84 1014.02 1014.12 1014.21 1014.26 1014.30 1014.53 1014.71 1014.84 1015.10 1015.25 1015.37 1015.44 1015.64 1015.84 1015.96 1016.04 1016.20 1016.55 1016.77
1009.64 1009.87 1010.09 1010.47 1010.61 1010.61 1010.69 1010.69 1011.06 1011.51 1011.75 1011.71 1011.52 1011.54 1011.60 1011.88 1012.21 1012.64 1012.89 1013.09 1013.25 1013.46 1013.68 1013.90 1014.08 1014.25 1014.41 1014.54 1014.69 1014.77 1014.90 1015.06 1015.16 1015.09 1015.27 1015.69 1015.88 1016.05 1016.26 1016.33 1016.36 1016.55 1016.84
1009.80 1009.99 1010.30 1010.64 1010.80 1010.98 1010.99 1011.05 1011.15 1011.32 1011.64 1011.93 1012.02 1012.00 1012.06 1012.19 1012.38 1012.80 1013.06 1013.25 1013.45 1013.67 1013.82 1013.87 1014.05 1014.25 1014.42 1014.65 1014.90 1015.04 1015.14 1015.25 1015.26 1015.36 1015.59 1015.71 1015.81 1016.03 1016.32 1016.61 1016.56 1016.72 1017.06
1010.28 1010.50 1010.66 1010.86 1011.07 1011.15 1011.18 1011.24 1011.38 1011.49 1011.54 1011.71 1012.02 1012.23 1012.39 1012.50 1012.64 1012.83 1013.19 1013.45 1013.63 1013.79 1014.03 1014.12 1014.17 1014.31 1014.49 1014.73 1014.90 1015.06 1015.21 1015.44 1015.59 1015.77 1015.83 1015.91 1015.93 1016.08 1016.25 1016.65 1016.90 1016.92 1017.06
1010.79 1010.91 1011.18 1011.20 1011.18 1011.26 1011.43 1011.53 1011.52 1011.50 1011.68 1011.87 1012.00 1012.05 1012.35 1012.56 1012.77 1012.97 1013.23 1013.36 1013.60 1013.83 1014.02 1014.28 1014.41 1014.47 1014.65 1014.93 1015.10 1015.27 1015.55 1015.72 1015.88 1016.13 1016.24 1016.16 1016.11 1016.05 1016.31 1016.61 1016.97 1017.07 1017.23
1011.09 1011.08 1011.22 1011.48 1011.59 1011.61 1011.75 1012.09 1012.18 1012.17 1012.11 1012.16 1012.18 1012.16 1012.22 1012.39 1012.68 1012.91 1013.16 1013.33 1013.56 1013.76 1014.06 1014.23 1014.55 1014.69 1014.82 1015.04 1015.19 1015.38 1015.59 1015.83 1016.03 1016.22 1016.32 1016.38 1016.43 1016.25 1016.44 1016.76 1016.88 1017.13 1017.38
1011.66 1011.77 1011.93 1012.12 1012.12 1011.89 1011.74 1011.74 1012.18 1012.38 1012.42 1012.43 1012.55 1012.56 1012.52 1012.49 1012.60 1012.70 1012.96 1013.21 1013.48 1013.78 1014.04 1014.21 1014.46 1014.72 1014.87 1015.08 1015.16 1015.42 1015.64 1015.80 1016.00 1016.10 1016.27 1016.33 1016.37 1016.39 1016.45 1016.82 1016.93 1017.11 1017.50
1011.87 1012.21 1012.42 1012.50 1012.39 1012.22 1012.26 1012.10 1012.00 1012.24 1012.41 1012.60 1012.71 1012.81 1012.92 1012.78 1012.77 1012.84 1013.10 1013.36 1013.46 1013.58 1013.93 1014.26 1014.52 1014.74 1015.02 1015.19 1015.25 1015.44 1015.62 1015.73 1016.04 1016.18 1016.14 1016.24 1016.26 1016.36 1016.58 1016.87 1017.06 1017.27 1017.60
1012.53 1012.60 1012.74 1012.71 1012.63 1012.52 1012.55 1012.61 1012.37 1012.35 1012.36 1012.65 1012.86 1013.03 1013.06 1013.29 1013.31 1013.32 1013.33 1013.49 1013.67 1013.77 1013.89 1014.19 1014.41 1014.68 1015.03 1015.22 1015.34 1015.49 1015.68 1015.80 1016.02 1016.19 1016.27 1016.21 1016.32 1016.42 1016.49 1016.90 1017.21 1017.36 1017.63
1013.66 1013.60 1013.08 1013.03 1012.84 1012.73 1012.49 1012.55 1012.58 1012.55 1012.58 1012.59 1012.79 1012.98 1013.17 1013.27 1013.42 1013.53 1013.49 1013.38 1013.55 1013.81 1013.97 1014.12 1014.23 1014.38 1014.65 1015.06 1015.43 1015.69 1015.79 1015.91 1016.00 1016.17 1016.30 1016.24 1016.29 1016.34 1016.48 1016.74 1017.08 1017.36 1017.58
1014.93 1014.79 1014.74 1014.20 1013.79 1013.06 1012.81 1012.85 1012.65 1012.74 1012.76 1012.82 1012.79 1012.92 1013.05 1013.19 1013.32 1013.49 1013.63 1013.60 1013.45 1013.62 1013.93 1014.10 1014.36 1014.43 1014.50 1014.78 1015.28 1015.68 1015.79 1015.85 1016.01 1016.08 1016.36 1016.30 1016.30 1016.35 1016.40 1016.71 1016.95 1017.33 1017.47
1016.46 1015.99 1015.82 1015.44 1014.96 1014.61 1014.09 1013.63 1013.09 1012.74 1012.68 1012.71 1012.90 1013.03 1012.96 1013.03 1013.13 1013.28 1013.45 1013.47 1013.56 1013.50 1013.76 1014.06 1014.25 1014.37 1014.45 1014.53 1014.84 1015.37 1015.68 1015.78 1015.75 1015.75 1015.82 1016.28 1016.30 1016.25 1016.28 1016.46 1016.73 1017.05 1017.39
1017.59 1017.26 1017.10 1016.72 1016.22 1015.63 1015.23 1014.77 1014.29 1014.03 1013.50 1013.03 1012.77 1012.86 1013.01 1013.06 1013.13 1013.10 1012.97 1013.09 1013.26 1013.21 1013.34 1013.68 1014.16 1014.43 1014.53 1014.41 1014.47 1014.73 1015.19 1015.50 1015.49 1015.58 1015.63 1015.64 1015.89 1016.01 1016.09 1016.27 1016.44 1016.83 1017.32
1018.70 1018.54 1018.19 1017.81 1017.39 1016.67 1016.13 1015.87 1015.29 1014.89 1014.52 1014.02 1013.36 1013.12 1012.92 1013.03 1013.12 1012.82 1012.65 1012.60 1012.63 1012.80 1012.97 1013.23 1013.54 1014.01 1014.37 1014.40 1014.31 1014.44 1014.67 1015.03 1015.29 1015.23 1015.33 1015.37 1015.57 1015.68 1015.94 1016.14 1016.16 1016.52 1016.96
1019.76 1019.42 1019.16 1018.69 1018.42 1017.79 1017.14 1016.83 1016.26 1015.74 1015.21 1014.69 1014.20 1013.79 1013.36 1013.30 1013.10 1012.73 1012.66 1012.47 1012.29 1012.26 1011.92 1012.20 1012.73 1013.32 1013.83 1014.23 1014.19 1014.17 1014.08 1014.29 1014.78 1015.03 1015.03 1015.02 1015.19 1015.30 1015.42 1015.68 1015.87 1016.11 1016.59
1020.88 1020.48 1019.82 1019.17 1018.86 1018.31 1017.76 1017.18 1016.86 1016.16 1015.61 1015.28 1014.96 1014.45 1014.08 1013.66 1013.39 1013.00 1012.84 1012.37 1012.12 1012.02 1011.54 1011.49 1012.07 1012.58 1013.21 1013.75 1013.89 1013.80 1013.87 1013.93 1014.03 1014.48 1014.64 1014.80 1014.72 1014.92 1015.00 1015.35 1015.55 1015.72 1016.18
1021.42 1020.97 1020.54 1019.98 1019.47 1018.93 1018.26 1017.65 1017.27 1016.71 1016.15 1015.71 1015.26 1014.85 1014.59 1014.24 1013.62 1013.16 1012.77 1011.75 1011.55 1011.97 1010.85 1010.89 1010.68 1011.95 1012.41 1012.99 1013.33 1013.27 1013.53 1013.63 1013.73 1013.89 1014.21 1014.25 1014.51 1014.49 1014.68 1014.81 1015.09 1015.34 1015.62
1022.05 1021.55 1021.06 1020.56 1020.00 1019.34 1018.66 1018.17 1017.62 1016.93 1016.54 1016.31 1015.66 1015.25 1014.74 1014.45 1013.89 1013.37 1012.88 1012.11 1011.20 1011.00 1010.71 1008.85 1010.88 1010.66 1011.98 1012.56 1012.71 1012.89 1012.76 1013.08 1013.40 1013.33 1013.53 1013.76 1013.95 1014.15 1014.15 1014.32 1014.64 1014.94 1015.34
1022.37 1022.03 1021.63 1021.23 1020.70 1019.94 1019.15 1018.41 1017.57 1017.11 1016.94 1016.59 1016.05 1015.51 1014.91 1014.47 1014.11 1013.70 1013.16 1012.67 1011.90 1010.80 1009.68 1009.65 1011.20 1011.15 1011.00 1011.72 1012.25 1012.39 1012.23 1011.97 1012.59 1012.98 1013.02 1013.10 1013.35 1013.54 1013.68 1013.99 1014.27 1014.51 1014.55
1022.59 1022.34 1022.02 1021.49 1020.96 1020.24 1019.54 1018.88 1017.88 1017.45 1017.12 1016.71 1016.25 1015.52 1015.18 1014.84 1014.18 1013.76 1013.31 1012.84 1012.15 1011.45 1010.68 1010.01 1009.99 1010.80 1010.41 1011.36 1011.89 1011.99 1011.83 1011.41 1011.71 1012.01 1012.45 1012.64 1012.69 1012.93 1013.21 1013.41 1013.74 1013.91 1014.27
1023.11 1022.65 1022.02 1021.56 1021.04 1020.51 1020.01 1019.66 1019.31 1018.61 1017.50 1016.96 1016.18 1015.77 1015.53 1014.79 1014.36 1013.76 1013.37 1012.64 1012.09 1011.53 1010.77 1010.14 1009.53 1009.16 1010.04 1011.00 1011.14 1011.20 1011.20 1011.19 1011.06 1011.19 1011.38 1011.83 1012.04 1012.27 1012.56 1012.69 1012.96 1013.28 1013.49
1023.59 1023.07 1022.29 1021.64 1021.01 1020.65 1020.22 1019.54 1019.16 1018.50 1017.78 1017.10 1016.50 1015.95 1015.35 1014.77 1014.19 1013.48 1012.94 1012.52 1011.95 1011.72 1011.06 1010.39 1009.62 1009.11 1008.69 1010.09 1010.52 1010.75 1010.02 1009.91 1010.09 1010.03 1010.25 1010.67 1011.17 1011.56 1011.73 1011.95 1012.22 1012.48 1012.90
1023.98 1023.37 1022.57 1021.96 1021.54 1021.07 1020.39 1019.80 1019.37 1018.76 1017.86 1017.32 1016.53 1015.77 1015.02 1014.41 1013.89 1013.21 1012.58 1012.23 1011.81 1011.32 1010.89 1010.24 1009.59 1008.46 1008.28 1008.26 1008.60 1007.43 1009.30 1008.69 1009.08 1009.37 1009.36 1009.46 1009.91 1010.44 1010.66 1011.10 1011.48 1011.84 1012.29
1024.00 1023.35 1023.09 1022.24 1021.80 1021.26 1020.68 1020.09 1019.40 1018.68 1017.88 1016.86 1016.13 1015.24 1014.45 1013.73 1013.21 1012.69 1012.13 1011.74 1011.43 1010.93 1010.34 1009.87 1009.19 1008.36 1007.17 1007.11 1007.39 1008.53 1008.55 1008.76 1008.89 1009.18 1008.75 1008.60 1008.94 1009.32 1009.67 1010.25 1010.50 1010.74 1011.30
1024.19 1023.61 1023.34 1022.48 1021.89 1021.38 1020.92 1020.15 1019.42 1018.55 1017.60 1016.54 1015.70 1014.66 1013.67 1012.90 1012.25 1011.86 1011.53 1011.06 1010.77 1010.39 1009.90 1009.27 1008.52 1007.66 1006.87 1006.14 1006.20 1006.87 1007.49 1007.61 1008.05 1008.41 1008.42 1008.01 1008.37 1008.41 1008.65 1009.44 1010.00 1010.11 1010.21
Wind_Speed
2 6 9 8 9 10 10 7 4 5 11 16 17 18 18 19 18 18 16 15 13 14 14 12 10 8 8 9 9 9 9 9 10 12 13 14 16 15 15 13 12 10 11
2 5 7 8 9 10 12 11 7 4 7 13 15 17 18 18 18 17 16 15 14 15 15 12 10 8 7 8 8 9 10 10 10 10 11 13 14 15 15 13 13 11 11
4 5 6 7 8 9 10 11 10 8 8 8 12 15 16 17 17 16 15 13 13 15 15 12 9 8 7 6 8 10 10 10 10 11 12 5 7 14 14 12 14 14 13
4 4 4 7 8 8 8 9 10 10 9 10 9 11 14 16 17 16 14 13 14 14 15 13 11 10 8 8 8 8 9 10 10 10 5 5 8 14 14 12 14 15 14
4 3 4 7 5 7 9 10 9 9 10 11 11 12 12 14 15 15 13 12 13 14 13 13 12 10 9 9 9 9 10 9 9 6 5 5 3 11 14 13 12 15 14
3 3 2 3 5 7 6 7 9 10 10 10 11 13 13 14 14 14 12 12 12 12 12 11 11 10 9 9 9 9 9 8 9 4 3 5 5 13 14 12 10 11 14
4 3 5 5 4 5 4 3 4 5 7 9 10 11 13 14 14 13 12 12 11 12 11 11 10 10 9 9 9 9 9 7 5 5 4 3 3 14 15 13 12 13 13
4 4 2 2 2 4 6 7 5 5 6 7 8 9 10 12 12 13 13 12 11 10 10 11 11 10 10 10 10 8 8 7 5 5 5 4 6 12 14 14 12 13 16
7 6 4 3 3 3 4 4 5 5 7 8 7 7 7 8 9 11 10 10 11 11 10 11 10 10 9 9 10 9 9 7 5 3 4 3 9 12 13 13 13 13 14
8 5 5 4 4 5 5 7 8 6 5 4 4 5 5 3 3 6 8 8 9 9 10 11 10 9 9 9 9 9 9 6 4 4 3 3 8 12 13 14 13 13 15
12 13 9 6 6 5 4 4 6 7 7 3 4 4 2 1 2 4 6 7 8 8 9 10 10 10 10 8 8 7 8 3 4 3 3 7 10 13 14 14 14 16 16
14 14 12 13 12 9 6 6 4 4 4 4 3 3 3 3 3 3 5 6 8 7 6 7 8 9 7 4 3 6 3 4 3 3 3 7 11 14 14 13 15 16 17
9 11 15 14 13 12 10 7 5 3 3 1 5 4 3 3 3 3 3 3 4 5 4 4 4 4 5 4 4 4 4 4 3 3 5 9 12 15 16 16 16 18 17
15 15 14 15 13 12 7 8 7 6 6 5 2 3 2 2 4 4 4 5 5 6 6 6 4 3 4 5 5 6 6 4 3 3 4 12 13 16 17 18 18 18 18
15 15 15 14 14 12 11 8 8 7 6 6 6 7 5 2 3 3 5 5 7 7 7 6 6 6 6 8 6 6 6 6 6 4 3 10 12 14 16 18 20 20 19
14 15 14 14 14 12 10 10 7 6 7 6 7 7 6 3 5 3 4 6 6 7 8 8 8 7 7 6 10 7 8 6 6 6 4 4 11 13 14 17 18 19 19
11 12 15 14 14 13 12 10 8 6 6 6 6 8 8 6 5 5 5 5 8 8 10 8 8 6 6 6 9 8 6 8 7 8 6 5 6 13 14 12 14 18 19
12 14 13 13 14 14 12 9 8 7 5 6 6 4 7 8 7 5 5 5 7 12 10 9 9 7 8 8 8 8 7 6 7 8 6 6 5 5 11 14 14 16 19
11 12 13 13 14 15 12 9 8 8 4 8 5 6 8 8 7 5 4 7 7 9 8 7 5 8 6 6 8 8 8 7 8 7 9 7 7 6 6 11 12 13 14
9 11 11 11 13 13 9 10 7 6 6 7 6 7 9 6 9 6 5 5 6 10 10 6 9 6 6 9 8 9 9 9 7 8 9 7 7 8 7 7 7 8 14
11 12 12 12 12 11 9 11 8 8 10 6 7 8 8 9 8 7 5 6 6 6 9 9 11 8 6 9 8 6 6 8 9 9 8 8 9 9 8 8 6 6 7
13 14 14 13 12 11 8 8 6 8 6 9 7 8 9 8 9 9 8 7 7 7 9 10 11 10 12 11 9 9 7 4 7 9 7 9 11 7 9 10 10 10 9
12 13 13 14 12 13 13 9 7 7 7 7 8 9 8 10 11 10 9 8 8 6 8 9 10 17 14 15 17 10 4 7 5 5 13 10 10 8 8 9 11 11 11
11 9 12 13 14 12 13 11 14 12 13 11 10 10 10 12 11 11 11 10 10 8 10 9 10 12 14 15 7 15 13 2 5 4 2 11 11 12 13 9 10 10 11
10 11 11 12 12 15 14 14 11 13 10 9 11 16 14 11 10 11 10 10 10 8 10 10 11 12 13 13 15 9 6 7 7 6 3 4 7 11 10 10 10 10 12
10 10 11 12 12 13 12 14 15 15 15 13 14 13 9 8 8 10 12 10 10 10 12 11 10 14 15 17 15 13 12 8 9 9 9 4 7 5 10 8 9 10 10
Wind_Direction
210 172 162 146 125 113 107 101 81 96 115 120 123 126 129 133 136 139 142 148 148 148 156 158 146 135 127 125 127 126 118 121 121 122 126 126 129 128 127 121 118 124 121
158 161 151 147 141 136 131 127 117 107 117 123 127 130 132 134 136 140 144 150 152 148 157 159 147 138 132 135 130 128 135 133 128 128 131 135 136 136 135 130 123 128 128
135 148 154 158 151 143 138 136 137 133 131 128 127 133 135 137 139 143 147 148 148 152 158 156 149 141 142 137 127 137 142 137 138 140 137 120 135 144 143 137 132 134 139
142 141 144 169 165 154 144 144 145 145 143 142 137 135 138 142 145 150 151 153 157 160 161 158 157 156 151 142 131 141 140 144 141 132 119 140 150 149 148 142 139 140 142
114 130 159 172 179 174 167 160 156 157 154 151 152 149 149 149 151 153 157 160 162 164 166 164 162 161 159 148 144 146 143 145 139 125 142 142 144 151 151 152 153 145 139
112 122 174 183 184 188 190 180 173 170 169 163 160 156 158 161 161 160 164 165 167 169 167 168 164 167 166 148 152 150 142 143 145 138 153 161 158 160 160 155 154 147 145
119 157 175 183 184 187 188 219 221 203 183 177 173 168 167 169 169 167 169 171 172 170 169 163 166 172 173 155 166 161 158 159 151 160 169 166 190 162 162 162 151 149 147
23 27 30 286 268 214 199 191 215 225 216 202 194 186 182 176 175 172 175 173 172 174 174 165 171 177 178 166 177 165 166 168 165 165 166 175 197 176 168 168 160 158 149
38 35 23 356 309 321 289 241 217 218 220 222 216 204 206 195 184 177 177 179 179 179 176 169 175 183 182 175 183 171 180 169 162 177 181 183 199 185 177 174 166 160 153
20 36 15 3 357 350 342 322 296 236 223 240 236 229 222 234 216 197 181 190 196 191 178 173 178 184 190 188 191 179 184 176 172 193 212 194 202 193 185 181 169 160 149
21 17 16 15 13 352 345 331 331 319 286 234 229 227 203 185 232 226 213 194 202 205 195 184 182 187 190 198 192 193 192 193 177 198 216 210 201 200 192 181 177 162 158
25 20 14 19 14 7 8 359 11 341 322 285 249 215 200 192 189 214 232 227 211 207 208 195 189 196 184 184 179 196 215 208 195 193 218 220 212 206 196 187 179 174 174
27 30 20 15 15 15 11 359 10 6 343 333 304 291 243 209 195 194 214 224 229 201 200 196 194 195 201 190 185 177 215 222 212 200 197 224 220 211 201 188 185 180 184
21 20 18 16 13 12 6 11 8 8 0 351 299 288 278 262 237 227 220 222 226 220 209 195 193 191 224 220 206 183 196 221 217 218 214 203 210 213 209 197 191 188 188
23 14 12 14 10 3 10 360 1 3 356 346 11 30 17 296 247 231 225 222 222 218 214 198 197 194 212 233 235 210 198 206 232 225 213 209 208 210 219 208 199 198 195
15 11 2 10 7 0 5 353 349 350 344 353 356 354 352 303 328 284 249 231 230 228 205 194 193 195 200 223 238 232 220 207 207 225 224 221 211 212 217 219 209 203 200
9 0 5 0 2 1 354 351 339 334 346 355 351 344 342 348 331 317 283 305 264 236 220 198 191 188 189 200 235 231 227 229 216 219 218 221 223 221 208 223 209 206 204
7 5 360 358 357 354 349 346 335 325 336 350 337 345 348 335 317 301 301 273 277 291 225 204 179 195 205 203 222 229 224 220 228 228 221 215 220 217 213 212 212 205 203
6 1 360 357 357 348 343 342 328 320 354 339 321 347 330 324 327 328 295 309 289 215 242 294 223 191 213 218 217 224 223 212 211 221 227 219 209 207 206 207 213 206 205
6 4 360 356 354 349 341 338 331 322 351 315 342 320 318 330 332 341 329 307 314 315 290 169 263 258 220 230 224 224 231 216 200 210 221 212 214 208 200 210 208 219 204
5 2 359 353 352 352 350 347 345 333 329 328 321 311 345 327 320 327 313 304 298 292 303 258 215 249 265 252 243 231 240 229 209 212 210 214 209 212 205 200 215 210 210
355 354 353 350 345 349 346 336 314 313 309 310 310 326 313 318 318 307 304 289 297 297 287 298 227 225 231 254 252 243 225 220 221 217 197 203 216 206 208 210 205 209 210
356 347 347 341 347 347 341 333 324 313 308 313 319 313 312 309 303 293 288 287 286 286 279 273 274 214 212 232 238 245 230 228 188 185 211 202 202 206 211 210 212 208 209
346 335 344 341 353 337 339 334 334 324 320 317 308 304 303 304 296 289 288 283 275 274 265 270 267 251 218 219 199 218 230 240 228 201 198 205 200 210 211 208 210 211 210
343 349 346 339 338 342 339 333 326 319 310 307 307 303 304 299 287 276 273 280 276 267 272 272 272 267 227 221 213 230 257 259 229 258 219 194 209 222 216 216 212 205 206
343 353 337 347 342 338 338 327 327 318 317 316 311 306 296 295 294 274 264 256 264 264 263 260 260 255 260 224 223 210 226 233 244 227 231 205 206 193 204 208 217 219 215